• In Uzbekistan
  • List of Countries
  • For 7 days
  • Water Temperature
  • Satellite Maps
  • Weather Map
  • Weather Widgets
  • user-avatar
    Login

    Hourly Weather Baalbek

    Today, 17 January, Thursday

    Time Temperature Precipitation Wind Pressure Humidity
    00:00 -1°C° 0.6 mm 5 mps 650 mmHg 93%
    01:00 -1°C° 0.6 mm 5 mps 650 mmHg 93%
    02:00 -2°C° 0 mm 6 mps 651 mmHg 91%
    03:00 -2°C° 0.2 mm 6 mps 651 mmHg 90%
    04:00 -3°C° 0.2 mm 7 mps 652 mmHg 89%
    05:00 -3°C° 0.2 mm 7 mps 652 mmHg 87%
    06:00 -3°C° 0 mm 6 mps 653 mmHg 87%
    07:00 -3°C° 0 mm 6 mps 653 mmHg 86%
    08:00 -3°C° 0 mm 6 mps 654 mmHg 85%
    09:00 -2°C° 0 mm 6 mps 655 mmHg 84%
    10:00 -2°C° 0 mm 6 mps 655 mmHg 83%
    11:00 -1°C° 0 mm 6 mps 656 mmHg 82%
    12:00 -1°C° 0 mm 6 mps 656 mmHg 79%
    13:00 -1°C° 0 mm 6 mps 656 mmHg 75%
    14:00 +1°C° 0 mm 5 mps 656 mmHg 71%
    15:00 -1°C° 0 mm 5 mps 656 mmHg 74%
    16:00 -2°C° 0 mm 4 mps 656 mmHg 76%
    17:00 -2°C° 0 mm 3 mps 656 mmHg 79%
    18:00 -2°C° 0 mm 3 mps 656 mmHg 78%
    19:00 -2°C° 0 mm 3 mps 656 mmHg 77%
    20:00 -3°C° 0 mm 2 mps 656 mmHg 76%
    21:00 -3°C° 0 mm 2 mps 657 mmHg 74%
    22:00 -2°C° 0 mm 2 mps 657 mmHg 72%
    23:00 -2°C° 0 mm 2 mps 657 mmHg 70%

    Tomorrow, 18 January, Friday

    Time Temperature Precipitation Wind Pressure Humidity
    00:00 -2°C° 0 mm 2 mps 657 mmHg 69%
    01:00 -2°C° 0 mm 2 mps 657 mmHg 68%
    02:00 -2°C° 0 mm 2 mps 657 mmHg 67%
    03:00 -2°C° 0 mm 2 mps 657 mmHg 67%
    04:00 -2°C° 0 mm 2 mps 658 mmHg 67%
    05:00 -2°C° 0 mm 2 mps 658 mmHg 66%
    06:00 -1°C° 0 mm 2 mps 658 mmHg 67%
    07:00 +1°C° 0 mm 2 mps 659 mmHg 68%
    08:00 +1°C° 0 mm 2 mps 659 mmHg 70%
    09:00 +4°C° 0 mm 1 mps 660 mmHg 70%
    10:00 +5°C° 0 mm 1 mps 660 mmHg 70%
    11:00 +6°C° 0 mm 1 mps 661 mmHg 70%
    12:00 +6°C° 0 mm 1 mps 661 mmHg 69%
    13:00 +6°C° 0 mm 1 mps 661 mmHg 68%
    14:00 +6°C° 0 mm 1 mps 660 mmHg 68%
    15:00 +5°C° 0 mm 1 mps 660 mmHg 71%
    16:00 +4°C° 0 mm 1 mps 660 mmHg 75%
    17:00 +1°C° 0 mm 0 mps 659 mmHg 78%
    18:00 +1°C° 0 mm 0 mps 660 mmHg 78%
    19:00 +1°C° 0 mm 0 mps 660 mmHg 79%
    20:00 0°C° 0 mm 0 mps 660 mmHg 80%
    21:00 0°C° 0 mm 0 mps 660 mmHg 78%
    22:00 +1°C° 0 mm 1 mps 660 mmHg 77%
    23:00 +1°C° 0 mm 1 mps 660 mmHg 76%

    Day after tomorrow, 19 January, Saturday

    Time Temperature Precipitation Wind Pressure Humidity
    00:00 +1°C° 0 mm 1 mps 660 mmHg 75%
    01:00 +1°C° 0 mm 1 mps 660 mmHg 73%
    02:00 +1°C° 0 mm 1 mps 660 mmHg 72%
    03:00 +1°C° 0 mm 1 mps 660 mmHg 71%
    04:00 +1°C° 0 mm 1 mps 660 mmHg 70%
    05:00 +1°C° 0 mm 1 mps 660 mmHg 69%
    06:00 +2°C° 0 mm 1 mps 660 mmHg 67%
    07:00 +2°C° 0 mm 1 mps 661 mmHg 65%
    08:00 +3°C° 0 mm 1 mps 661 mmHg 62%
    09:00 +4°C° 0 mm 1 mps 661 mmHg 61%
    10:00 +5°C° 0 mm 1 mps 662 mmHg 60%
    11:00 +6°C° 0 mm 1 mps 662 mmHg 58%
    12:00 +7°C° 0 mm 1 mps 661 mmHg 59%
    13:00 +7°C° 0 mm 1 mps 661 mmHg 59%
    14:00 +7°C° 0 mm 1 mps 660 mmHg 59%
    15:00 +6°C° 0 mm 1 mps 660 mmHg 63%
    16:00 +4°C° 0 mm 1 mps 660 mmHg 67%
    17:00 +2°C° 0 mm 0 mps 659 mmHg 72%
    18:00 +2°C° 0 mm 0 mps 659 mmHg 72%
    19:00 +2°C° 0 mm 0 mps 660 mmHg 71%
    20:00 +2°C° 0 mm 0 mps 660 mmHg 71%
    21:00 +3°C° 0 mm 1 mps 660 mmHg 70%
    22:00 +3°C° 0 mm 1 mps 660 mmHg 70%
    23:00 +3°C° 0 mm 1 mps 660 mmHg 69%

    20 January, Sunday

    Time Temperature Precipitation Wind Pressure Humidity
    00:00 +3°C° 0 mm 1 mps 660 mmHg 67%
    01:00 +3°C° 0 mm 1 mps 660 mmHg 65%
    02:00 +3°C° 0 mm 1 mps 659 mmHg 63%
    03:00 +2°C° 0 mm 1 mps 659 mmHg 61%
    04:00 +2°C° 0 mm 1 mps 659 mmHg 58%
    05:00 +2°C° 0 mm 1 mps 659 mmHg 56%
    06:00 +3°C° 0 mm 1 mps 659 mmHg 52%
    07:00 +3°C° 0 mm 1 mps 660 mmHg 49%
    08:00 +4°C° 0 mm 1 mps 660 mmHg 45%
    09:00 +5°C° 0 mm 1 mps 661 mmHg 44%
    10:00 +7°C° 0 mm 1 mps 661 mmHg 43%
    11:00 +8°C° 0 mm 1 mps 661 mmHg 42%
    12:00 +8°C° 0 mm 1 mps 661 mmHg 43%
    13:00 +8°C° 0 mm 1 mps 660 mmHg 44%
    14:00 +8°C° 0 mm 1 mps 660 mmHg 45%
    15:00 +7°C° 0 mm 1 mps 659 mmHg 49%
    16:00 +4°C° 0 mm 0 mps 659 mmHg 54%
    17:00 +3°C° 0 mm 0 mps 658 mmHg 59%
    18:00 +3°C° 0 mm 0 mps 659 mmHg 58%
    19:00 +3°C° 0 mm 0 mps 659 mmHg 58%
    20:00 +4°C° 0 mm 0 mps 659 mmHg 57%
    21:00 +4°C° 0 mm 0 mps 659 mmHg 56%
    22:00 +5°C° 0 mm 1 mps 659 mmHg 55%
    23:00 +5°C° 0 mm 1 mps 659 mmHg 54%

    21 January, Monday

    Time Temperature Precipitation Wind Pressure Humidity
    00:00 +4°C° 0 mm 1 mps 659 mmHg 53%
    01:00 +4°C° 0 mm 1 mps 659 mmHg 53%
    02:00 +4°C° 0 mm 1 mps 659 mmHg 52%
    03:00 +3°C° 0 mm 1 mps 658 mmHg 52%
    04:00 +3°C° 0 mm 1 mps 658 mmHg 52%
    05:00 +3°C° 0 mm 1 mps 658 mmHg 51%
    06:00 +4°C° 0 mm 1 mps 659 mmHg 51%
    07:00 +4°C° 0 mm 1 mps 659 mmHg 50%
    08:00 +5°C° 0 mm 1 mps 660 mmHg 49%
    09:00 +6°C° 0 mm 1 mps 660 mmHg 49%
    10:00 +7°C° 0 mm 1 mps 661 mmHg 50%
    11:00 +7°C° 0 mm 2 mps 661 mmHg 51%
    12:00 +7°C° 0 mm 2 mps 661 mmHg 52%
    13:00 +7°C° 0 mm 2 mps 660 mmHg 54%
    14:00 +7°C° 0 mm 2 mps 660 mmHg 55%
    15:00 +7°C° 0 mm 1 mps 660 mmHg 59%
    16:00 +6°C° 0 mm 1 mps 659 mmHg 63%
    17:00 +5°C° 0 mm 1 mps 659 mmHg 67%
    18:00 +4°C° 0 mm 1 mps 659 mmHg 69%
    19:00 +3°C° 0 mm 0 mps 660 mmHg 70%
    20:00 +3°C° 0 mm 0 mps 660 mmHg 71%
    21:00 +4°C° 0 mm 1 mps 660 mmHg 69%
    22:00 +4°C° 0 mm 1 mps 660 mmHg 68%
    23:00 +4°C° 0 mm 1 mps 660 mmHg 66%

    22 January, Tuesday

    Time Temperature Precipitation Wind Pressure Humidity
    00:00 +3°C° 0 mm 1 mps 660 mmHg 66%
    01:00 +3°C° 0 mm 1 mps 660 mmHg 66%
    02:00 +3°C° 0 mm 1 mps 659 mmHg 66%
    03:00 +3°C° 0 mm 1 mps 659 mmHg 66%
    04:00 +3°C° 0 mm 1 mps 659 mmHg 66%
    05:00 +3°C° 0 mm 1 mps 659 mmHg 66%
    06:00 +4°C° 0 mm 1 mps 659 mmHg 64%
    07:00 +4°C° 0 mm 1 mps 660 mmHg 62%
    08:00 +5°C° 0 mm 1 mps 661 mmHg 59%
    09:00 +6°C° 0 mm 1 mps 661 mmHg 57%
    10:00 +7°C° 0 mm 1 mps 661 mmHg 56%
    11:00 +7°C° 0 mm 2 mps 661 mmHg 54%
    12:00 +8°C° 0 mm 2 mps 661 mmHg 53%
    13:00 +8°C° 0 mm 2 mps 660 mmHg 52%
    14:00 +8°C° 0 mm 2 mps 660 mmHg 50%
    15:00 +7°C° 0 mm 2 mps 659 mmHg 55%
    16:00 +6°C° 0 mm 1 mps 659 mmHg 60%
    17:00 +5°C° 0 mm 1 mps 658 mmHg 64%
    18:00 +5°C° 0 mm 1 mps 659 mmHg 65%
    19:00 +5°C° 0 mm 1 mps 659 mmHg 65%
    20:00 +4°C° 0 mm 1 mps 659 mmHg 65%
    21:00 +4°C° 0 mm 1 mps 659 mmHg 64%
    22:00 +4°C° 0 mm 1 mps 659 mmHg 62%
    23:00 +5°C° 0 mm 1 mps 659 mmHg 60%
    Show more